Zurück zum Katalog

STARLINK-3133

AktivKommunikationVLEO
NORAD 49416·PAYLOAD·🇺🇸 United States

Gestartet Nov 13, 2021 von Cape Canaveral Space Force Station

Loading…

Nächste Überflüge (nächste 24 Stunden)

TLE

AktuellSource: CelesTrak SupGP

Epoche: Sep 14, 2026, 20:57 UTC

1 49416C 21104J   26257.87340278  .00001284  00000+0  37958-4 0  2570
2 49416  53.1591  87.6780 0001297  83.8406 349.1468 15.34377206    18

Verfolge STARLINK-3133 in Echtzeit mit AllMySat

Download on the App Store